Location: Golden Pond Observatory
(36.7773°N, 88.0631°W)
Time: 07:15:47
(UTC-05:00)

OTV 5 (USA 277) - Visible Passes

Search period start: 20 October 2019 00:00
Search period end: 30 October 2019 00:00
Orbit: 310 x 324 km, 54.5° (Epoch: 17 October)

Date Brightness Start Highest point End Pass type
(mag) Time Alt. Az. Time Alt. Az. Time Alt. Az.
20 Oct ? 06:08:43 17° NW 06:10:42 81° SW 06:13:25 10° SE visible
21 Oct ? 04:52:34 12° E 04:52:34 12° E 04:52:55 10° E visible
21 Oct ? 06:23:30 14° W 06:25:07 22° SW 06:27:20 10° S visible
22 Oct ? 05:07:29 16° ESE 05:07:29 16° ESE 05:08:12 10° ESE visible
23 Oct ? 05:22:32 11° SSE 05:22:32 11° SSE 05:22:37 10° SSE visible
26 Oct ? 19:10:59 10° S 19:12:58 25° SE 19:12:58 25° SE visible
27 Oct ? 19:25:03 10° SW 19:27:43 84° W 19:27:43 84° W visible
28 Oct ? 19:40:00 10° W 19:42:19 26° NW 19:42:19 26° NW visible
29 Oct ? 19:56:00 10° WNW 19:56:47 12° NW 19:56:47 12° NW visible
